AirNav   Everest Fuels
 
 435 users online  

PS78 Pittsburgh City Center Heliport
Pittsburgh, Pennsylvania, USA

GOING TO PITTSBURGH?


FAA INFORMATION EFFECTIVE 31 DECEMBER 2020

Location

FAA Identifier: PS78
Lat/Long: 40-26-32.2480N 079-57-36.1870W
40-26.537467N 079-57.603117W
40.4422911,-79.9600519
(estimated)
Elevation: 1124 ft. / 343 m (estimated)
Variation: 09W (2000)
Time zone: UTC -5 (UTC -4 during Daylight Saving Time)
Zip code: 15213

Heliport Operations

Heliport use: Private use, MEDICAL USE.
Activation date: 04/1986
Control tower: no
ARTCC: CLEVELAND CENTER
FSS: ALTOONA FLIGHT SERVICE STATION
NOTAMs facility: FDC (NOTAM-D service not available)
Attendance: CONTINUOUS
FOR ATTENDANT CALL 412-692-5000.
Wind indicator: lighted
Segmented circle: no
Lights: FOR PERIMETER LGTS CALL 412-692-5191.
Beacon: white-green-yellow (heliport)
FOR ROTG BCN CALL 412-692-5191.
Landing fee: yes

Heliport Communications

PITTSBURGH APPROACH: 126.725
PITTSBURGH DEPARTURE: 126.725
WX AWOS-A at 42PN (2.2 nm NW): PHONE 412-442-2213
WX ASOS at AGC (5 nm S): 120.55 (412-466-8968)
WX ASOS at PIT (13 nm W): PHONE 412-472-0145
WX AWOS-3 at FWQ (15 nm SE): 118.475 (724-379-5815)
  • APCH/DEP SVC PRVDD BY PITSBURGH INTL ATCT (PIT) 126.725/291.650.

Nearby radio navigation aids

VOR radial/distance  VOR name  Freq  Var
AGCr030/10.5ALLEGHENY VOR/DME110.0009W
EWCr161/25.7ELLWOOD CITY VOR/DME115.8008W
HLGr076/29.9WHEELING VOR/DME112.2007W
IHDr322/39.4INDIAN HEAD VORTAC108.2006W

Heliport Services

Runway Information

Helipad H1

Dimensions: 96 x 48 ft. / 29 x 15 m
Surface: concrete, in fair condition
Runway edge lights: PERI
Latitude: 40-26.537467N
Longitude: 079-57.603117W
Elevation: 1124.0 ft.
Traffic pattern: leftleft
Markings: none, in fair condition

Heliport Ownership and Management from official FAA records

Ownership: Privately-owned
Owner: UPMC PRESBYTERIAN
200 LOTHROP STREET
PITTSBURGH, PA 15213
Phone 412-647-5618
Manager: DON CHARLEY
200 LOTHROP STREET
PITTSBURGH, PA 15213
Phone 412-647-5618
412-692-5000.

Additional Remarks

FOR CD CTC PITTSBURGH APCH AT 412-472-5591
A52-H1 ELEVATOR TOWER & PENTHOUSE - EAST OF LANDING AREA; HOSPITAL TOWER & FLAGPOLE - NORTH OF LANDING AREA.

Instrument Procedures

There are no published instrument procedures at PS78.

Some nearby airports with instrument procedures:

KAGC - Allegheny County Airport (5 nm S)
G05 - Finleyville Airpark (12 nm S)
KPIT - Pittsburgh International Airport (13 nm W)
KFWQ - Rostraver Airport (15 nm SE)
KBTP - Pittsburgh/Butler Regional Airport (20 nm N)
 
Loc | Ops | Rwys | IFR | FBO | Links
Com | Nav | Svcs | Stats | Notes
Area around PS78 (Pittsburgh City Center Heliport)
 
Road maps at: MapQuest Bing Google
 
Aerial photo
No photo
 
Sectional chart

 
Airport distance calculator
Flying to Pittsburgh City Center Heliport? Find the distance to fly.

From to PS78

Sunrise and sunset
Times for 23-Jan-2021
 Local
(UTC-5)
 Zulu
(UTC)
Morning civil twilight07:0812:08
Sunrise07:3812:38
Sunset17:2622:26
Evening civil twilight17:5522:55

Current date and time
Zulu (UTC)  23-Jan-2021 06:48:26
Local (UTC-5)  23-Jan-2021 01:48:26
 
METAR
KAGC 
6nm S 
230553Z 29005G15KT 10SM OVC046 M04/M11 A3005 RMK AO2 SLP194 T10391111 11017 21039 51012
KPIT 
14nm W 
230551Z 29014KT 7SM -SN SCT029 OVC040 M04/M11 A3006 RMK AO2 SNB25 SLP201 P0000 60000 T10391111 11022 21039 53012 $
KP53 
15nm SE 
230556Z AUTO VRB06KT M10/M14 A3018 RMK AO1 SLP232 P0001 60002 T11001139 11078 21106 51006
KBTP 
19nm N 
230556Z AUTO 33004KT 9SM -SN BKN025 OVC033 M06/M08 A3006 RMK AO2 SLP203 P0000 6//// T10611083 11033 21061 53009 FZRANO
TAF
KAGC 
6nm S 
230551Z 2306/2406 30009G16KT P6SM -SHSN OVC045 TEMPO 2306/2310 2SM -SHSN BKN015 FM231000 30008G16KT P6SM BKN040 FM240000 31004KT P6SM SCT200
KPIT 
14nm W 
230540Z 2306/2412 29009KT P6SM -SHSN OVC045 TEMPO 2306/2310 2SM -SHSN BKN015 FM231000 30008KT P6SM BKN035 FM240000 32004KT P6SM SCT200 FM240600 32003KT P6SM OVC250
NOTAMs
Click for the latest NOTAMs
NOTAMs are issued by the DoD/FAA and will open in a separate window not controlled by AirNav.

 

 
 

Would you like to see your business listed on this page?

 If your business provides an interesting product or service to pilots, flight crews, aircraft, or users of the Pittsburgh City Center Heliport, you should consider listing it here.  To start the listing process, click on the button below
 
Add a business
 

Other Pages about Pittsburgh City Center Heliport

Update a link
 
Copyright © AirNav, LLC. All rights reserved. Privacy Policy  Contact